TimeEST,TemperatureF,Dew PointF,Humidity,Sea Level PressureIn,VisibilityMPH,Wind Direction,Wind SpeedMPH,Gust SpeedMPH,PrecipitationIn,Events,Conditions,WindDirDegrees,DateUTC
12:53 AM,16.0,12.0,84,30.41,10.0,Calm,Calm,-,N/A,,Clear,0,2013-02-09 05:53:00
1:53 AM,14.0,10.9,88,30.41,3.0,Calm,Calm,-,N/A,,Clear,0,2013-02-09 06:53:00
2:01 AM,12.2,8.6,85,30.37,1.8,Calm,Calm,-,N/A,,Clear,0,2013-02-09 07:01:00
2:11 AM,12.2,10.4,92,30.37,3.0,Calm,Calm,-,N/A,,Clear,0,2013-02-09 07:11:00
2:34 AM,10.4,6.8,85,30.37,1.2,Calm,Calm,-,N/A,,Clear,0,2013-02-09 07:34:00
2:44 AM,10.4,6.8,85,30.37,3.0,East,3.5,-,N/A,,Clear,80,2013-02-09 07:44:00
2:53 AM,8.1,3.9,83,30.42,3.0,Calm,Calm,-,N/A,,Clear,0,2013-02-09 07:53:00
3:53 AM,9.0,5.0,84,30.42,8.0,Calm,Calm,-,N/A,,Clear,0,2013-02-09 08:53:00
4:38 AM,8.6,3.2,79,30.38,2.5,Calm,Calm,-,N/A,,Haze,0,2013-02-09 09:38:00
4:48 AM,6.8,3.2,85,30.38,5.0,Calm,Calm,-,N/A,,Partly Cloudy,0,2013-02-09 09:48:00
4:53 AM,6.8,3.2,85,30.38,6.0,Calm,Calm,-,N/A,,Scattered Clouds,0,2013-02-09 09:53:00
5:00 AM,6.8,1.4,79,30.39,6.0,Calm,Calm,-,N/A,,Mostly Cloudy,0,2013-02-09 10:00:00
5:08 AM,6.8,1.4,79,30.39,8.0,Calm,Calm,-,N/A,,Scattered Clouds,0,2013-02-09 10:08:00
5:29 AM,8.6,3.2,79,30.39,8.0,Calm,Calm,-,N/A,,Mostly Cloudy,0,2013-02-09 10:29:00
5:53 AM,6.1,1.9,83,30.43,4.0,Calm,Calm,-,N/A,,Scattered Clouds,0,2013-02-09 10:53:00
6:08 AM,6.8,1.4,79,30.38,2.0,Calm,Calm,-,N/A,,Mostly Cloudy,0,2013-02-09 11:08:00
6:53 AM,3.9,-0.9,80,30.44,1.5,Calm,Calm,-,N/A,,Overcast,0,2013-02-09 11:53:00
7:24 AM,3.2,-0.4,85,30.39,3.0,ESE,4.6,-,N/A,,Scattered Clouds,110,2013-02-09 12:24:00
7:53 AM,3.0,-0.9,84,30.45,5.0,ESE,3.5,-,N/A,,Scattered Clouds,110,2013-02-09 12:53:00
8:53 AM,7.0,3.9,87,30.46,6.0,Calm,Calm,-,N/A,,Scattered Clouds,0,2013-02-09 13:53:00
9:53 AM,10.4,10.4,100,30.41,7.0,SSE,3.5,-,N/A,,Scattered Clouds,150,2013-02-09 14:53:00
10:53 AM,19.0,14.0,81,30.45,10.0,SSE,8.1,-,N/A,,Partly Cloudy,160,2013-02-09 15:53:00
11:53 AM,24.1,16.0,71,30.43,10.0,South,6.9,-,N/A,,Partly Cloudy,170,2013-02-09 16:53:00
12:53 PM,27.0,17.1,66,30.40,10.0,South,6.9,-,N/A,,Partly Cloudy,180,2013-02-09 17:53:00
1:53 PM,30.0,18.0,61,30.37,10.0,South,10.4,-,N/A,,Partly Cloudy,170,2013-02-09 18:53:00
2:53 PM,30.9,18.0,59,30.33,10.0,South,8.1,-,N/A,,Partly Cloudy,180,2013-02-09 19:53:00
3:53 PM,32.0,17.1,54,30.32,10.0,South,9.2,-,N/A,,Partly Cloudy,180,2013-02-09 20:53:00
4:53 PM,32.0,17.1,54,30.32,10.0,SSW,9.2,-,N/A,,Partly Cloudy,200,2013-02-09 21:53:00
5:53 PM,28.9,16.0,58,30.30,10.0,South,9.2,-,N/A,,Partly Cloudy,170,2013-02-09 22:53:00
6:53 PM,27.0,16.0,63,30.29,10.0,SSE,8.1,-,N/A,,Partly Cloudy,150,2013-02-09 23:53:00
7:53 PM,26.1,16.0,66,30.28,10.0,SSE,6.9,-,N/A,,Scattered Clouds,150,2013-02-10 00:53:00
8:53 PM,24.1,16.0,71,30.27,10.0,ESE,5.8,-,N/A,,Scattered Clouds,120,2013-02-10 01:53:00
9:53 PM,25.0,16.0,69,30.26,10.0,SE,6.9,-,N/A,,Scattered Clouds,130,2013-02-10 02:53:00
10:53 PM,21.0,14.0,74,30.25,10.0,ESE,5.8,-,N/A,,Scattered Clouds,110,2013-02-10 03:53:00
11:53 PM,19.0,12.9,77,30.23,10.0,East,5.8,-,N/A,,Scattered Clouds,90,2013-02-10 04:53:00